#timestamp,LO_Frequency,Hit,StdDev 
1538154015.4,286047002.8,N
1538154035.2,286047000.6,N
1538154055.0,286046999.8,N
1538154056.0,286046999.8,N
1538154075.8,286047002.1,N
1538154095.6,286047001.3,N
1538154115.5,286047001.4,N
1538154135.3,286047002.4,N
1538154155.1,286047001.9,N
1538154175.9,286047002.2,N
1538154195.7,286047000.2,N
1538154215.5,286047000.0,N
1538154235.4,286047001.0,N
1538154255.2,286047000.6,N
1538154275.1,286047000.9,N
1538154276.0,286047000.9,N
1538154295.8,286046999.9,N
1538154315.6,286047000.6,N
1538154335.5,286046998.7,N
1538154355.3,286046998.4,N
1538154375.1,286046998.6,N
1538154395.9,286047000.9,N
1538154415.7,286047001.0,N
1538154435.6,286047000.7,N
1538154455.4,286047000.3,N
1538154475.2,286047001.0,N
1538154495.1,286046999.9,N
1538154496.0,286046999.9,N
1538154515.8,286046999.9,N
1538154535.6,286047001.1,N
1538154555.5,286047000.0,N
1538154575.3,286047000.1,N
1538154595.2,286047000.4,N
1538154615.9,286046999.8,N
1538154635.7,286046999.7,N
1538154655.6,286047000.6,N
1538154675.4,286047004.3,Y
1538154695.2,286047002.1,P
1538154715.1,286047000.2,N
1538154716.0,286047000.2,N
1538154735.8,286046998.4,N
1538154755.7,286047000.6,N
1538154775.5,286047001.0,N
1538154795.3,286046999.7,N
1538154815.2,286046999.7,N
1538154835.9,286047002.5,N
1538154855.7,286047001.7,N
1538154875.6,286047003.7,Y
1538154895.4,286047001.5,P
1538154915.3,286047001.5,P
1538154935.1,286047001.7,P
1538154936.0,286047001.7,Y
1538154955.8,286047000.0,P
1538154975.7,286047000.1,N
1538154995.5,286047000.8,N
1538155015.3,286046998.6,N
1538155035.2,286046998.3,N
1538155055.0,286046998.4,N
1538155055.9,286046998.4,N
1538155075.8,286046998.5,N
1538155095.6,286046998.7,N
1538155115.4,286046997.1,N
1538155135.3,286046996.7,N
1538155155.1,286046996.9,N
1538155175.8,286046999.5,N
1538155195.7,286046998.6,N
1538155215.5,286046996.6,N
1538155235.4,286046998.8,N
1538155255.2,286047000.4,N
1538155275.0,286046998.4,N
1538155275.9,286046998.4,N
1538155295.8,286046999.9,N
1538155315.6,286047001.2,N
1538155335.4,286046996.7,N
1538155355.3,286046996.8,N
1538155375.1,286046998.2,N
1538155395.9,286046998.2,N
1538155415.7,286047000.3,N
1538155435.5,286047002.5,N
1538155455.4,286047004.2,N
1538155475.2,286047001.3,N
1538155495.0,286047001.4,N
1538155495.9,286047001.4,N
1538155515.8,286047001.7,N
1538155535.6,286047003.8,N
1538155555.5,286047003.2,N
1538155575.3,286047004.0,N
1538155595.1,286047002.8,N
1538155615.9,286047001.0,N
1538155635.7,286046999.8,N
1538155655.5,286046998.4,N
1538155675.4,286046998.5,N
1538155695.2,286047004.0,N
1538155715.1,286047002.0,N
1538155716.0,286047002.0,N
1538155735.8,286047003.1,N
1538155755.6,286047003.5,N
1538155775.5,286047002.9,N
1538155795.3,286047004.5,N
1538155815.1,286047003.5,N
1538155835.9,286047003.6,N
1538155855.7,286047003.8,N
1538155875.6,286047003.8,N
1538155895.4,286047003.4,N
1538155915.2,286047004.6,N
1538155935.1,286047007.5,Y
1538155936.0,286047007.5,P
1538155955.8,286047007.5,N
1538155975.6,286047004.6,N
1538155995.5,286047007.0,Y
1538156015.3,286047002.2,P
1538156035.2,286047002.0,N
1538156055.9,286047003.5,N
1538156075.7,286047003.4,N
1538156095.6,286047005.5,Y
1538156115.4,286047002.1,P
1538156135.2,286047002.7,P
1538156155.1,286047004.4,P
1538156156.0,286047004.4,Y
1538156175.8,286047000.6,P
1538156195.7,286047001.0,N
1538156215.5,286047003.8,P
1538156235.3,286047001.7,N
1538156255.2,286047004.3,Y
1538156275.0,286047000.9,P
1538156275.9,286047000.9,N
1538156295.7,286046998.4,P
1538156315.6,286046998.1,N
1538156335.4,286046998.1,N
1538156355.3,286046998.4,N
1538156375.1,286046998.2,N
1538156376.0,286046998.2,N
1538156395.8,286047001.9,N
1538156415.7,286047001.3,N
1538156435.5,286047002.4,N
1538156455.3,286047002.7,N
1538156475.2,286047000.2,N
1538156495.0,286046999.9,N
1538156495.9,286046999.9,N
1538156515.8,286047002.8,N
1538156535.6,286047002.4,N
1538156555.4,286047001.3,N
1538156575.3,286047005.8,Y
1538156595.1,286047005.5,P
1538156615.8,286047006.0,N
1538156635.7,286047006.8,N
1538156655.5,286047007.1,N
1538156675.4,286047006.4,N
1538156695.2,286047006.2,N
1538156715.0,286047010.3,Y
1538156715.9,286047010.3,P
1538156735.8,286047004.8,N
1538156755.6,286047005.8,N
1538156775.4,286047007.4,Y
1538156795.3,286047002.7,P
1538156815.1,286047004.0,N
1538156835.9,286047003.6,N
1538156855.7,286047003.7,N
1538156875.5,286047004.8,Y
1538156895.4,286047000.4,P
1538156915.2,286047001.0,N
1538156935.0,286047001.0,N
1538156936.0,286047001.0,N
1538156955.8,286046999.9,N
1538156975.6,286046999.8,N
1538156995.5,286046999.8,N
1538157015.3,286047001.9,N
1538157035.1,286047001.5,N
1538157055.9,286047001.6,N
1538157075.7,286047000.2,N
1538157095.5,286046999.9,N
1538157115.4,286047000.5,N
1538157135.2,286047002.1,N
1538157155.1,286047001.9,N
1538157156.0,286047001.9,N
1538157175.8,286047003.0,N
1538157195.6,286047005.7,Y
1538157215.5,286047006.0,P
1538157235.3,286047003.8,N
1538157255.1,286047005.9,N
1538157275.9,286047006.4,Y
1538157295.7,286047002.1,P
1538157315.6,286047001.4,N
1538157335.4,286047002.6,N
1538157355.2,286047001.4,N
1538157375.1,286047002.9,N
1538157376.0,286047002.9,N
1538157395.8,286047003.4,Y
1538157415.6,286047004.4,P
1538157435.5,286047003.3,P
1538157455.3,286047003.7,P
1538157475.2,286047003.5,Y
1538157495.9,286047001.0,P
1538157515.7,286047002.6,N
1538157535.6,286047002.0,N
1538157555.4,286047005.3,Y
1538157575.3,286047003.8,P
1538157595.1,286047002.4,P
1538157596.0,286047002.4,P
